Preview of NWS' New Version of Forecast
This preview is not operational and should not be used for support decisions.

Regional Weather Roundup (RWR)

Issued by Wakefield, VA (AKQ)

                            
000
ASUS41 KAKQ 200715
RWRAKQ

REGIONAL WEATHER ROUNDUP
NATIONAL WEATHER SERVICE WAKEFIELD VA
300 AM EDT MON MAY 20 2019

Note: "fair" indicates few or no clouds below 12,000 feet with no
significant weather and/or obstructions to visibility. * = Denotes
station may not report precipitation (e.g., rain,snow,etc.),
thunder or fog.

VAZ042-051-052>054-056-200800-
NORTHERN VIRGINIA
  
CITY           SKY/WX    TMP DP  RH WIND       PRES   REMARKS
WASH NATIONAL  CLOUDY    75  64  68 S10       29.89F                  
DULLES         MOCLDY    75  63  66 S12       29.88F                  
FORT BELVOIR   FAIR      76  63  65 S5        29.90F                  
QUANTICO       FAIR      77  65  66 SW8       29.91F                  
FREDERICKSBRG* FAIR      74  65  71 S10       29.92S                  
STAFFORD*      FAIR      75  63  67 S7        29.96S                  
WARRENTON      MOCLDY    76  60  57 S8G16     29.90S                  
CULPEPER*      MOCLDY    74  62  64 S7        29.91S                  
MANASSAS*      FAIR      75  64  68 S7        29.90F                  
LEESBURG*      MOCLDY    72  68  88 SW3       29.90S                  
WINCHESTER     FAIR      70  61  73 SW5       29.91S                  
FRONT ROYAL*   FAIR      70  64  83 SW3       29.89S                  
LURAY*         FAIR      68  64  88 SW5       29.92S                  
$$

VAZ048-049-060>072-079>083-200800-
CENTRAL AND SOUTH CENTRAL VIRGINIA
  
CITY           SKY/WX    TMP DP  RH WIND       PRES   REMARKS
RICHMOND       FAIR      71  64  78 S7        29.96S                  
CHESTERFIELD*  FAIR      73  64  73 SW7       29.97S                  
PETERSBURG*    NOT AVBL                                               
HANOVER        FAIR      77  62  59 S10       29.96F                  
TAPPAHANNOCK*  FAIR      72  66  80 S7        29.96S                  
QUINTON*       FAIR      73  64  73 CALM      29.96S                  
CHARLOTTSVILLE FAIR      74  60  61 S10       29.92S                  
GORDONSVILLE*  FAIR      69  65  89 SW7       29.92F                  
ORANGE*        FAIR      70  63  78 S5        29.92F                  
LOUISA*        FAIR      71  62  74 S6        29.99S                  
BUMPASS*       FAIR      72  64  75 SW9       29.95S                  
FARMVILLE*     FAIR      71  64  79 SW6       29.96S                  
CREWE*         FAIR      70  66  87 CALM      29.98S                  
FORT PICKETT*  FAIR      70  64  79 S8        29.99S                  
CHASE CITY*    FAIR      72  64  75 S3        30.00R                  
CLARKSVILLE*   FAIR      72  64  78 S9G16     29.99S                  
SOUTH HILL*    FAIR      69  66  89 S7        30.06S                  
LAWRENCEVILLE* FAIR      71  64  76 S5        30.00S                  
EMPORIA*       FAIR      71  64  77 CALM      30.01S                  
$$

VAZ088>098-200800-
SOUTHEAST VIRGINIA
  
CITY           SKY/WX    TMP DP  RH WIND       PRES   REMARKS
NORFOLK        FAIR      74  64  71 SW13      29.99S                  
VIRGINIA BEACH FAIR      72  64  76 SW10      29.99F                  
NORFOLK NAVAL  FAIR      74  65  73 S10G17    30.00F                  
WEST POINT*    FAIR      75  66  73 S8        29.98R                  
SALUDA*        FAIR      75  71  87 S7        29.96S                  
NEWPORT NEWS   FAIR      74  66  76 SW10      29.99S                  
LANGLEY AFB    FAIR      74  67  78 S14       29.98F                  
FORT EUSTIS    FAIR      74  68  81 S6        29.96S                  
WILLIAMSBURG*  FAIR      75  68  78 S7        29.99S                  
HR EXEC AP*    FAIR      71  65  81 S7        30.00F                  
FRANKLIN*      FAIR      72  69  89 S6        30.01S                  
US460-WAKEFLD  FAIR      75  64  68 SW7       29.99R                  
$$

VAZ020-022-025-037-045-200800-
WEST CENTRAL AND SOUTHWEST VIRGINIA
  
CITY           SKY/WX    TMP DP  RH WIND       PRES   REMARKS
STAUNTON*      FAIR      63  63  98 CALM      29.96S                  
WAYNESBORO*    FAIR      71  58  64 SW5       29.96S                  
HOT SPRINGS VA FAIR      65  62  91 W17G23    30.07F                  
LYNCHBURG      FAIR      66  61  84 SW8       29.98F                  
DANVILLE       FAIR      71  64  78 SW6       29.99S                  
SOUTH BOSTON*  FAIR      73  64  75 SW6       29.99S                  
MARTINSVILLE   FAIR      63  61  94 CALM      30.03S                  
ROANOKE        MOCLDY    73  57  57 CALM      30.00S                  
BLACKSBURG     FAIR      64  61  89 CALM      30.06S                  
DUBLIN*        FAIR      66  61  82 CALM      30.04S                  
MARION*        MOCLDY    63  63 100 CALM      30.08S FOG              
HILLSVILLE*    FAIR      65  55  72 SE5       30.06S                  
RICHLANDS*     CLOUDY    67  57  68 SW8       30.05F                  
WISE*          CLOUDY    68  57  68 SW6       30.05S                  
ABINGDON*      CLOUDY    64  64 100 CALM      30.03F                  
$$

MDZ021>025-VAZ099-100-200800-
SOUTHERN MARYLAND AND THE DELMARVA PENINSULA
  
CITY           SKY/WX    TMP DP  RH WIND       PRES   REMARKS
PATUXENT RIVER FAIR      76  66  71 SW12      29.93S                  
BAY BRIDGE APT FAIR      75  66  73 S6        29.89F                  
LEONARDTOWN    FAIR      73  64  73 SW8       29.94F                  
DOVER          FAIR      74  66  77 S14       29.89F                  
GEORGETOWN     FAIR     N/A N/A N/A S10       29.94S                  
EASTON         FAIR      75  67  77 S8        29.95S                  
CAMBRIDGE      CLEAR     75  66  73 S8        29.93S                  
SALISBURY      FAIR      75  68  78 SW10      29.94S                  
TANGIER        FAIR      73  70  88 S12G20    29.96S                  
OCEAN CITY     FAIR      72  67  84 SW10      29.96S                  
WALLOPS ISLAND FAIR      69  68  96 S5        29.97S                  
ACCOMACK*      FAIR      75  67  76 SW10G16   29.97S                  
$$

NCZ012>017-030>032-200800-
NORTH CENTRAL AND EASTERN NORTH CAROLINA
  
CITY           SKY/WX    TMP DP  RH WIND       PRES   REMARKS
ROANOKE RAPIDS FAIR      70  68  94 S9        30.01S                  
RALEIGH        FAIR      71  66  84 SW12      30.03R                  
ELIZABETH CITY FAIR      73  66  78 SW13      30.02S                  
AHOSKIE*       FAIR      70  65  83 CALM      30.02R                  
EDENTON*       FAIR      73  69  87 SW8       30.04S                  
CURRITUCK*     FAIR      72  67  84 MISG      30.02S                  
KILL DEVIL HLS FAIR      71  66  83 MISG      30.02S                  
MANTEO         FAIR      72  67  85 SW12      30.04S                  
CAPE HATTERAS  FAIR      72  71  97 SW7       30.05F                  
TARBORO*       FAIR      71  66  83 S3        30.03R                  
GOLDSBORO      FAIR      71  67  87 SW6       30.03R                  
WASHINGTON     FAIR      71  67  88 S7        30.04S                  
GREENVILLE     FAIR      70  64  83 SW7       30.05S                  
NEW BERN       FAIR      70  69  97 SW5       30.05F                  
WILMINGTON     FAIR      71  66  84 S6        30.05F                  
$$

VAZ048-200800-
ELSEWHERE
  
CITY           SKY/WX    TMP DP  RH WIND       PRES   REMARKS
HARRISBURG PA  MOCLDY    68  66  93 E3        29.84F                  
BALTIMORE      MOCLDY    77  64  64 SW9       29.86F                  
ANNAPOLIS      FAIR      81  63  54 MISG      29.88F                  
ANDREWS AFB    FAIR      76  62  63 S14       29.89F                  
PHILADELPHIA   MOCLDY    72  64  76 S5        29.88F                  
HENDERSON NC   FAIR      68  63  82 S10       30.02R                  
GREENSBORO     FAIR      70  66  87 SW9       30.01S                  
ROCKY MOUNT    FAIR      71  67  87 SW8       30.03S                  
$$

VAZ100-200800-
MARINE
  
STATION/POSITION TIME  TEMP    WIND        PRES    WAVE   SWELL
                       AIR SEA DIR/SP/G            HT/PER HT/PER
                 (UTC) (F)     (DEG/KT/KT) (MB)    (FT/S) (FT/S)
BRANDYWINE LGT   0648                      1013.4F
CAPE MAY NJ      0642   71 61  210/ 10/ 13 1013.1F
LEWES DE         0642   76 60  230/ 10/ 16 1013.6F
15NM E FENWICK I 0650   64 61  210/ 14/ 16 1014.1R   3/ 5   2/14
OCEAN-CITY-INLET 0642   66 61  210/ 10/ 12 1015.0S
WACHAPREAGUE VA  0648   74 75  240/  6/ 11 1014.4F
THOMAS POINT MD  0700   78 65  180/ 16/ 17 1012.8F
GOOSES REEF MD   0636   71     220/ 10/ 10 1013.4F
COVE POINT MD    0648   76     230/ 16/ 19 1013.8F
SOLOMONS ISLAND  0648   74 69  210/ 11/ 14 1012.9F
BISHOPS HEAD MD  0642   74 73  200/ 13/ 16 1014.0S
PINEY POINT MD   0636          230/ 16/ 18   N/A
POTOMAC MD       0648   74 69  260/ 12/ 12 1013.2S
CAMBRIDGE MD     0642   75 69              1013.1F
LEWISETTA VA     0642   77 67  240/ 12/ 16 1014.0S
RAPPAHANNOCK LGT 0636          190/ 17/ 19 1015.6S
STINGRAY PT      0642   74 70  240/ 12/ 12 1012.9S
YORK RVR RNG VA  0648   75     230/ 14/ 16 1015.4F
YORKTOWN VA      0648   76 72  210/ 10/ 15 1014.5F
DOMINION TERM VA 0648   74     200/ 12/ 14 1015.8F
KIPTOPEKE VA     0636      69  210/ 11/ 14   N/A
CAPE HENRY VA    0636   74     200/  8/ 13 1015.6F
WILLOUBY STN VA  0642   75     200/ 16/ 19 1014.5F
S CRANEY ISL VA  0648   74     200/ 11/ 14 1015.4F
CAPE HENRY BUOY  0700      67                N/A     2/ 4
1ST LANDING BUOY 0650   72     220/ 14/ 16 1015.2F
64NM E OF VA BCH 0650   65 61  220/ 12/ 14 1016.9F   3/ 4   2/14
DUCK PIER NC     0636   75 63  210/ 12/ 17 1016.3F
44100 DUCK FRF   0700      69                N/A     2/12   2/12
44056 DUCK FRF   0630      67                N/A     2/14   2/14
OREGON INLET NC  0636   75 70  220/ 14/ 18 1017.1F
HATTERAS NC      0636   72 75  220/  6/  8 1017.6F
CAPE LOOKOUT NC  0700   73     230/  6/  8 1017.8F
$$